THAICOM 4

Last updated on Sat Jul 05 2025 00:02:44 GMT+0000 (Coordinated Universal Time)

1 28786U 05028A 25185.68447670 -.00000348 00000+0 00000+0 0 9993 2 28786 0.0228 17.7622 0002555 82.3840 188.6957 1.00268787 72846
UTC large
Height (km)
Speed (km/s)
/
Latitude / Longitude
Inclination (degrees)
Orbital Period (minutes)
Azimuth
Elevation
Range (km)
Doppler Factor

Next 0 passes for location: London (51.5072 / 0.1276)

Sorry there are no passes over London.